This is the latest recevied weather packets stored in our database for station/object KI4BIY. If no packets are shown the sender has not sent any weather packets the latest 10 day(s).
| Time | Temp. | Humidity | Pressure | Rain* | Wind** | Luminosity | Snow |
|---|---|---|---|---|---|---|---|
| 1777568528 | 17.78° C | 53% | 1016.7 hPa | 0 mm | - | 453 W/m² | - |
| 1777568224 | 17.78° C | 51% | 1016.9 hPa | 0 mm | - | 447 W/m² | - |
| 1777567921 | 17.78° C | 55% | 1017.1 hPa | 0 mm | - | 478 W/m² | - |
| 1777567618 | 18.33° C | 55% | 1017.2 hPa | 0 mm | - | 550 W/m² | - |
| 1777567315 | 17.78° C | 56% | 1017.2 hPa | 0 mm | - | 429 W/m² | - |
| 1777567014 | 17.22° C | 53% | 1016.9 hPa | 0 mm | - | 324 W/m² | - |
| 1777566711 | 17.22° C | 51% | 1016.9 hPa | 0 mm | - | 327 W/m² | - |
| 1777566408 | 17.78° C | 54% | 1017.2 hPa | 0 mm | - | 342 W/m² | - |
| 1777566105 | 17.78° C | 54% | 1017.2 hPa | 0 mm | - | 483 W/m² | - |
| 1777565800 | 17.22° C | 53% | 1017.3 hPa | 0 mm | - | 465 W/m² | - |
| 1777565497 | 17.78° C | 58% | 1017.4 hPa | 0 mm | - | 498 W/m² | - |
| 1777565194 | 17.22° C | 54% | 1017.5 hPa | 0 mm | - | 570 W/m² | - |
| 1777564890 | 16.67° C | 54% | 1017.4 hPa | 0 mm | - | 506 W/m² | - |
| 1777564585 | 17.78° C | 53% | 1017.4 hPa | 0 mm | - | 571 W/m² | - |
| 1777564281 | 17.78° C | 53% | 1017.2 hPa | 0 mm | - | 800 W/m² | - |
| 1777563977 | 17.78° C | 53% | 1016.9 hPa | 0 mm | - | 802 W/m² | - |
| 1777563674 | 17.78° C | 55% | 1016.9 hPa | 0 mm | - | 686 W/m² | - |
| 1777563369 | 17.22° C | 56% | 1017.2 hPa | 0 mm | - | 587 W/m² | - |
| 1777563064 | 17.22° C | 54% | 1016.9 hPa | 0 mm | - | 476 W/m² | - |
| 1777562760 | 17.22° C | 57% | 1017.1 hPa | 0 mm | - | 591 W/m² | - |
| 1777562459 | 17.22° C | 56% | 1016.7 hPa | 0 mm | - | 619 W/m² | - |
| 1777562155 | 17.22° C | 59% | 1016.7 hPa | 0 mm | - | 659 W/m² | - |
| 1777561853 | 16.67° C | 61% | 1016.6 hPa | 0 mm | - | 640 W/m² | - |
| 1777561550 | 16.67° C | 60% | 1016.4 hPa | 0 mm | - | 439 W/m² | - |
| 1777561245 | 16.67° C | 61% | 1016.6 hPa | 0 mm | - | 498 W/m² | - |
* Rain latest hour (hover to see other rain measurements)
** Current wind speed in m/s (hover to see current wind gust speed)